ICEYE-X38 (59100 NORAD) Tracking and Keplerian Element Data

This shows tracking and keplerian element data for the satellite.

Feedback or suggestion? Click here.




ElementValue
Catalog59100
NameICEYE-X38
Epoch Orbit5037
Epoch Day35.16759979
Epoch Year2025
RAAN165.1227
Inclination97.7767
Eccentricity0.0002887
Argument of Perigee344.9582
Mean Anonmoly15.1557
Mean Motion15.04755369
Decay Rate0.00012238
L11 59100U 24043C 25035.16759979 .00012238 00000+0 87154-3 0 9999
L22 59100 97.7767 165.1227 0002887 344.9582 15.1557 15.04755369 50378



Live tracking and technical data element details for ICEYE-X38 (NORAD 59100). ICEYE-X38 can be tracked NOW for your location showing map with azimuth and elevation plus other details from your city location.







IsCatalogInMostPopularTable: catalog: 59100, numindb: 41
Update: records affected: 1



GetName: 59100 ICEYE-X38

Hit Count: updated at: Wed, 18 Jun 2025 05:24:55 GMT